This is the latest recevied weather packets stored in our database for station/object KD5HIA. If no packets are shown the sender has not sent any weather packets the latest 10 day(s).
| Time | Temp. | Humidity | Pressure | Rain* | Wind** | Luminosity | Snow |
|---|---|---|---|---|---|---|---|
| 1777475116 | 16.67° C | 82% | 1015.2 hPa | 0 mm | - | 59 W/m² | - |
| 1777474516 | 17.22° C | 81% | 1014.7 hPa | 0 mm | - | 70 W/m² | - |
| 1777473916 | 17.78° C | 81% | 1014.5 hPa | 0 mm | - | 120 W/m² | - |
| 1777473317 | 17.78° C | 81% | 1014.8 hPa | 0 mm | - | 86 W/m² | - |
| 1777472716 | 17.78° C | 82% | 1014.9 hPa | 0 mm | - | 58 W/m² | - |
| 1777472116 | 17.78° C | 82% | 1015.1 hPa | 0 mm | - | 84 W/m² | - |
| 1777471516 | 17.78° C | 84% | 1014.6 hPa | 0 mm | - | 56 W/m² | - |
| 1777470916 | 17.78° C | 85% | 1014.4 hPa | 0 mm | - | 52 W/m² | - |
| 1777470316 | 17.78° C | 87% | 1014.2 hPa | 0 mm | - | 50 W/m² | - |
| 1777469716 | 17.78° C | 89% | 1014.7 hPa | 0 mm | - | 47 W/m² | - |
| 1777469116 | 18.33° C | 90% | 1014.7 hPa | 0 mm | - | 53 W/m² | - |
| 1777468516 | 18.33° C | 90% | 1014.7 hPa | 0 mm | - | 22 W/m² | - |
| 1777467916 | 18.89° C | 89% | 1014.7 hPa | 0 mm | - | 22 W/m² | - |
| 1777467316 | 18.89° C | 89% | 1014.5 hPa | 0 mm | - | 25 W/m² | - |
| 1777466716 | 19.44° C | 88% | 1014.2 hPa | 0 mm | - | 12 W/m² | - |
| 1777466116 | 19.44° C | 89% | 1014.3 hPa | 0 mm | - | 18 W/m² | - |
| 1777465516 | 19.44° C | 89% | 1014.1 hPa | 0 mm | - | 4 W/m² | - |
| 1777464916 | 19.44° C | 89% | 1013.3 hPa | 0 mm | - | 0 W/m² | - |
| 1777464316 | 20° C | 89% | 1013.9 hPa | 0 mm | - | 0 W/m² | - |
| 1777463716 | 20° C | 90% | 1013.5 hPa | 0 mm | - | 0 W/m² | - |
| 1777463116 | 20° C | 90% | 1013.2 hPa | 0 mm | - | 0 W/m² | - |
| 1777462517 | 20° C | 90% | 1012.8 hPa | 0 mm | - | 0 W/m² | - |
| 1777461916 | 20° C | 90% | 1012.6 hPa | 0 mm | - | 0 W/m² | - |
| 1777461316 | 20° C | 90% | 1012.6 hPa | 0 mm | - | 0 W/m² | - |
| 1777460720 | 20° C | 89% | 1012.6 hPa | 0 mm | - | 0 W/m² | - |
* Rain latest hour (hover to see other rain measurements)
** Current wind speed in m/s (hover to see current wind gust speed)